Tracking 29892 objects as of 21-Nov-2024
HD Live streaming from Space Station
objects crossing your sky now

DELTA 1 DEB

Track DELTA 1 DEB now!
10-day predictions


NORAD ID: 13580
Int'l Code: 1978-026FT
Perigee: 734.2 km
Apogee: 800.7 km
Inclination: 98.6 °
Period: 100.0 minutes
Semi major axis: 7138 km
RCS: 0.0083 m2 (small)
Launch date: March 5, 1978
Source: United States (US)
Launch site: AIR FORCE WESTERN TEST RANGE (AFWTR)

Note: This is SATELLITE DEBRIS
Your satellite tracking list
Your tracking list is empty




NASA's NSSDC Master Catalog

Two Line Element Set (TLE):
1 13580U 78026FT  24323.88210886  .00001801  00000-0  58536-3 0  9995
2 13580  98.6301 344.4745 0046607 210.3555 149.4932 14.39447092598929
Source of the keplerian elements: AFSPC